Location: Eaton
(41.3139°N, 82.0207°W)
Time: 08:36:51
(UTC+00:00)

Cosmos 1867 - Pass Details

Date: 17 June 2021
Orbit: 773 x 802 km, 65.0° (Epoch: 27 July)

Event Time Altitude Azimuth Distance (km) Brightness Sun altitude
Rises 04:25:39 0° 329° (NNW) 3,320 8.1 -23.7°
Reaches altitude 10° 04:28:06 10° 332° (NNW) 2,386 7.1 -23.8°
Maximum altitude 04:33:35 70° 55° (NE) 853 3.7 -24.0°
Enters shadow 04:34:47 53° 117° (ESE) 981 3.7 -24.1°
